Regional Weather Roundup
Issued by NWS

Home | Current Version | Previous Version | Graphics & Text | Print | Product List | Glossary On
Versions: 1 2 3 4 5 6 7 8 9 10 11 12 13 14 15 16 17 18 19 20 21 22 23 24 25 26 27 28 29 30 31 32 33 34 35 36 37 38 39 40 41 42 43 44 45 46 47 48 49 50
000
ASUS43 KMKX 251510
RWRWI

WISCONSIN REGIONAL WEATHER ROUNDUP
NATIONAL WEATHER SERVICE MILWAUKEE/SULLIVAN WI
900 AM CST SUN JAN 25 2015

NOTE: "FAIR" INDICATES FEW OR NO CLOUDS BELOW 12,000 FEET WITH NO
SIGNIFICANT WEATHER AND/OR OBSTRUCTIONS TO VISIBILITY.

WIZ001-002-006>008-014>016-023>028-251600-
NORTHWEST WISCONSIN

CITY           SKY/WX    TMP DP  RH WIND       PRES   REMARKS
SUPERIOR ARPT  CLOUDY    22  13  69 SE7G16    30.03R WCI  13
ASHLAND        CLOUDY    17   9  70 E9        30.03R WCI   6
HAYWARD        CLOUDY    18   9  68 NE12G17   29.98R WCI   5
SIREN            N/A     20  12  71 E8        30.00R WCI  11
CUMBERLAND     PTSUNNY   14   9  79 NE8       29.97R WCI   3
RICE LAKE      PTSUNNY   15   8  75 NE6       30.00R WCI   6
CHETEK         PTSUNNY   15   8  75 NE5       29.98R WCI   7
LADYSMITH      CLOUDY    16  10  76 NE12      29.98R WCI   3
EAU CLAIRE     CLOUDY    19  10  68 NE13      29.96R WCI   6
MENOMONIE      CLOUDY    20  11  68 N10       29.97R WCI   9
NEW RICHMOND   CLOUDY    17   9  71 E12G22    29.96S WCI   4
OSCEOLA        CLOUDY    19  11  69 NE9G16    30.01R WCI   8
$$

WIZ003>005-009-010-017-018-251600-
NORTH CENTRAL WISCONSIN

CITY           SKY/WX    TMP DP  RH WIND       PRES   REMARKS
MANITOWISH WTR FLURRIES  12   6  79 E10       29.95R WCI  -2
ARBOR VITAE    CLOUDY    14   8  75 NE8       29.95R WCI   3
WOODRUFF       CLOUDY    14   8  75 NE8       29.95R WCI   3
RHINELANDER    CLOUDY    12   5  73 E10       29.94R WCI  -1
EAGLE RIVER    CLOUDY    12   5  71 E9        29.94R WCI   0
LAND O LAKES   FLURRIES  12   6  76 NE7       29.96R WCI   2
PHILLIPS       FLURRIES  14   8  76 NE8       29.94R WCI   2
TOMAHAWK       CLOUDY    14   7  73 NE9       29.95R WCI   2
MEDFORD        CLOUDY    15   8  75 E12       29.93R WCI   2
MERRILL        FLURRIES  17   9  71 E13       29.95R WCI   3
$$

WIZ029-030-035-036-043>047-251600-
CENTRAL WISCONSIN

CITY           SKY/WX    TMP DP  RH WIND       PRES   REMARKS
WAUSAU         FLURRIES  17   9  70 E12       29.94R WCI   4
MOSINEE        FLURRIES  18  12  79 NE8       29.94R WCI   7
MARSHFIELD     CLOUDY    19  10  68 NE12      29.93R WCI   7
STEVENS POINT  FLURRIES  16   9  74 E14       29.96R WCI   2
WAUPACA        CLOUDY    21  13  70 E12G18    29.98R WCI   9
WAUTOMA        MIX PCPN  20  12  71 NE21G29   29.96R WCI   4
WISC RAPIDS    CLOUDY    20  10  65 NE9       29.96R WCI   9
CAMP DOUGLAS   CLOUDY    23  18  80 NE8       29.93R WCI  14
$$

WIZ011>013-019>022-031-037>040-048>050-251600-
NORTHEAST WISCONSIN

CITY           SKY/WX    TMP DP  RH WIND       PRES   REMARKS
ANTIGO         CLOUDY    13   8  77 E12G17    29.94R WCI   0
SHAWANO        CLOUDY    19   9  66 NE15G22   30.00R WCI   5
OCONTO         PTSUNNY   16   8  72 MISG      30.02R
STURGEON BAY   CLOUDY    16   7  67 NE14      30.00R WCI   1
GREEN BAY      CLOUDY    17   9  70 NE24      29.98R WCI  -1
MANITOWOC      CLOUDY    23  14  68 NE14G20   29.96R WCI  11
APPLETON       CLOUDY    18   9  68 NE16G22   29.95R WCI   3
CLINTONVILLE   FLURRIES  19  10  68 NE15      29.98R WCI   5
OSHKOSH        FLURRIES  19  11  70 NE20G28   29.94R WCI   3
$$

WIZ032>034-041-042-053>061-251600-
SOUTHWEST WISCONSIN

CITY           SKY/WX    TMP DP  RH WIND       PRES   REMARKS
LA CROSSE      CLOUDY    27  17  66 E6        29.93R WCI  20
SPARTA         CLOUDY    23  15  71 E10       29.94R WCI  12
VIROQUA        CLOUDY    23  18  82 E12       29.86R WCI  12
BOSCOBEL       CLOUDY    25  18  74 NE10G21   29.89R WCI  15
PRAIRIE DU CHI CLOUDY    27  19  72 N10G17    29.87R WCI  17
PLATTEVILLE    CLOUDY    25  22  87 N17G26    29.81R WCI  12
$$

WIZ056-057-062-063-064-067-068-251600-
SOUTH CENTRAL WISCONSIN

CITY           SKY/WX    TMP DP  RH WIND       PRES   REMARKS
REEDSBURG      CLOUDY    22  15  77 NE10G18   29.90R WCI  11
BARABOO/DELLS  CLOUDY    21  15  76 NE17G23   29.89R WCI   7
LONE ROCK      CLOUDY    24  17  74 NE9       29.89R WCI  14
MINERAL POINT  FLURRIES  27  21  80 NE14G21   29.82R WCI  15
MADISON        FLURRIES  23  17  78 NE16      29.87R WCI  10
MIDDLETON      CLOUDY    24  19  78 NE16G26   29.87R WCI  11
WATERTOWN      CLOUDY    25  21  83 NE15G28   29.86R WCI  13
MONROE         CLOUDY    27  25  93 NE23      29.79R WCI  12
JANESVILLE     LGT SNOW  28  25  86 NE17G25   29.81R WCI  16
$$

WIZ051-052-058>065-066-070>072-251600-
SOUTHEAST WISCONSIN

CITY           SKY/WX    TMP DP  RH WIND       PRES   REMARKS
MILWAUKEE      CLOUDY    26  16  65 NE22G31   29.86R WCI  12
WAUKESHA       CLOUDY    25  21  86 NE17G29   29.86R WCI  11
MILWAUKEE/TIMM CLOUDY    25  16  68 NE17G26   29.87R WCI  11
RACINE         CLOUDY    27  19  72 NE22G29   29.86R WCI  13
BURLINGTON     CLOUDY    25  18  76 NE18G26   29.83R WCI  11
KENOSHA        CLOUDY    27  21  78 NE17G25   29.83R WCI  14
FOND DU LAC    CLOUDY    22  14  71 NE17G25   29.93R WCI   8
SHEBOYGAN      CLOUDY    23  15  71 NE21G31   29.92R WCI   8
WEST BEND      CLOUDY    25  18  74 NE20G29   29.88R WCI  11
JUNEAU         CLOUDY    24  17  75 NE20G26   29.89R WCI   9
$$

LSZ147-162-251600-
LAKE SUPERIOR

STATION/POSITION TIME  TEMP    WIND        PRES    WAVE
                       AIR SEA DIR/SP/G            HT/PER
                 (UTC) (F)     (DEG/KT/KT) (MB)    (FT/S)
DEVILS ISLAND    1500   18      70/ 15/ 19 1019.3R
PORT WING        1440   21      70/  9/ 13 1016.9R
SAXON HARBOR     1400   18      80/  4/ 11 1016.9R
$$

LMZ867-665-643>646-251600-
LAKE MICHIGAN

STATION/POSITION TIME  TEMP    WIND        PRES    WAVE
                       AIR SEA DIR/SP/G            HT/PER
                 (UTC) (F)     (DEG/KT/KT) (MB)    (FT/S)
NORTHPORT PIER   1506   15      10/ 14/ 22 1016.9R
SISTER BAY       1443   16      10/ 16/ 23   N/A
KEWAUNEE LAKESHO 1400   22      60/ 20/ 26 1013.2R
SHEBOYGAN LAKESH 1500   23      50/ 26/ 29 1014.6R
PORT WASHINGTON  1440   26      70/ 20/ 28 1013.2R
MILWAUKEE LAKESH 1400   27      40/ 24/ 29   N/A
KENOSHA   LAKESH 1500   29      30/ 21/ 27 1010.2R
$$

TC  - TEMPERATURE IN CELSIUS
VSB - VISIBILITY IN STATUTE MILES
WCI - WIND CHILL INDEX
HX  - HEAT INDEX



USA.gov is the U.S. government's official web portal to all federal, state and local government web resources and services.